Location: Newark
(48.3453°N, 0.5589°E)
Time: 23:56:34
(UTC+00:00)

Transit 2A Rocket - Visible Passes

Search period start: 06 December 2019 00:00
Search period end: 16 December 2019 00:00
Orbit: 594 x 909 km, 66.7° (Epoch: 05 December)

Date Brightness Start Highest point End Pass type
(mag) Time Alt. Az. Time Alt. Az. Time Alt. Az.
06 Dec 4.6 17:23:01 10° SSW 17:27:34 66° ESE 17:30:41 18° NE visible
06 Dec 6.5 19:06:59 10° W 19:10:28 22° NW 19:10:36 22° NW visible
07 Dec 5.3 16:40:55 10° S 16:45:08 37° ESE 16:49:10 10° NE visible
07 Dec 6.0 18:23:38 10° WSW 18:27:41 32° NW 18:29:25 24° N visible
08 Dec 5.2 17:40:37 10° SW 17:45:01 52° NW 17:48:11 17° NNE visible
08 Dec 7.3 19:26:35 10° NW 19:28:06 13° NW 19:28:06 13° NW visible
09 Dec 4.6 16:57:54 10° SW 17:02:26 87° WNW 17:06:48 10° NE visible
09 Dec 6.7 18:42:37 10° WNW 18:45:36 17° NW 18:46:50 16° NNW visible
10 Dec 6.4 17:59:03 10° W 18:02:45 25° NW 18:05:32 14° N visible
11 Dec 5.7 17:15:50 10° WSW 17:20:00 38° NW 17:24:04 10° NNE visible
11 Dec 7.2 19:02:53 10° NW 19:03:47 11° NNW 19:04:06 10° NNW visible
12 Dec 5.0 16:32:54 10° SW 16:37:21 62° NW 16:41:40 10° NNE visible
12 Dec 6.9 18:18:25 10° WNW 18:20:46 14° NNW 18:22:45 11° N visible
13 Dec 6.6 17:34:37 10° W 17:37:51 20° NW 17:41:02 10° NNE visible
14 Dec 6.1 16:51:11 10° WSW 16:55:02 28° NW 16:58:49 10° NNE visible
15 Dec 7.0 17:54:27 10° NW 17:55:59 12° NNW 17:57:31 10° N visible
